When you browse on this site, cookies collect data to enhance your experience and personalize the content and advertising you see.
Visit our Privacy Policy to learn more. By continuing to use the site, you agree to this use of cookies and data.
  • In Sweden
  • List of Countries
  • For 7 days
  • Water Temperature
  • Weather Map
  • Weather Widgets
  • user-avatar
    Login

    Hourly Weather Brunoy

    Today, 13 November, Wednesday

    Time Temperature Precipitation Wind Pressure Humidity
    00:00 +4°C° 0 mm 4 mps 745 mmHg 81%
    01:00 +4°C° 0 mm 4 mps 745 mmHg 83%
    02:00 +4°C° 0 mm 3 mps 745 mmHg 85%
    03:00 +4°C° 0 mm 3 mps 745 mmHg 86%
    04:00 +4°C° 0 mm 3 mps 745 mmHg 88%
    05:00 +4°C° 0 mm 3 mps 746 mmHg 90%
    06:00 +3°C° 0 mm 3 mps 746 mmHg 92%
    07:00 +4°C° 0.1 mm 3 mps 746 mmHg 90%
    08:00 +5°C° 0.1 mm 3 mps 746 mmHg 88%
    09:00 +5°C° 0.1 mm 3 mps 746 mmHg 86%
    10:00 +7°C° 0 mm 3 mps 746 mmHg 82%
    11:00 +8°C° 0 mm 3 mps 746 mmHg 78%
    12:00 +9°C° 0 mm 3 mps 746 mmHg 72%
    13:00 +9°C° 0 mm 3 mps 746 mmHg 71%
    14:00 +8°C° 0 mm 4 mps 746 mmHg 71%
    15:00 +8°C° 0 mm 4 mps 745 mmHg 71%
    16:00 +7°C° 0 mm 4 mps 745 mmHg 73%
    17:00 +7°C° 0 mm 4 mps 745 mmHg 76%
    18:00 +6°C° 0 mm 4 mps 745 mmHg 79%
    19:00 +6°C° 0 mm 5 mps 744 mmHg 78%
    20:00 +6°C° 0 mm 5 mps 743 mmHg 76%
    21:00 +4°C° 0 mm 6 mps 742 mmHg 75%
    22:00 +4°C° 0 mm 6 mps 742 mmHg 76%
    23:00 +4°C° 0 mm 6 mps 741 mmHg 76%

    Tomorrow, 14 November, Thursday

    Time Temperature Precipitation Wind Pressure Humidity
    00:00 +3°C° 0 mm 7 mps 740 mmHg 77%
    01:00 +3°C° 0.8 mm 7 mps 740 mmHg 80%
    02:00 +3°C° 0.8 mm 7 mps 739 mmHg 83%
    03:00 +3°C° 0.8 mm 6 mps 739 mmHg 86%
    04:00 +3°C° 0.2 mm 5 mps 739 mmHg 85%
    05:00 +4°C° 0.2 mm 4 mps 739 mmHg 85%
    06:00 +4°C° 0.2 mm 3 mps 740 mmHg 85%
    07:00 +4°C° 0 mm 3 mps 740 mmHg 84%
    08:00 +4°C° 0 mm 3 mps 741 mmHg 84%
    09:00 +5°C° 0 mm 4 mps 742 mmHg 83%
    10:00 +5°C° 0 mm 3 mps 742 mmHg 80%
    11:00 +7°C° 0 mm 3 mps 742 mmHg 76%
    12:00 +8°C° 0 mm 2 mps 742 mmHg 73%
    13:00 +8°C° 0 mm 2 mps 742 mmHg 73%
    14:00 +8°C° 0 mm 2 mps 742 mmHg 73%
    15:00 +9°C° 0 mm 1 mps 742 mmHg 73%
    16:00 +8°C° 0 mm 1 mps 742 mmHg 77%
    17:00 +7°C° 0 mm 1 mps 743 mmHg 80%
    18:00 +7°C° 0 mm 1 mps 743 mmHg 84%
    19:00 +5°C° 0 mm 2 mps 743 mmHg 86%
    20:00 +5°C° 0 mm 2 mps 743 mmHg 88%
    21:00 +5°C° 0 mm 2 mps 743 mmHg 89%
    22:00 +5°C° 0 mm 2 mps 743 mmHg 89%
    23:00 +5°C° 0 mm 2 mps 743 mmHg 90%

    Day after tomorrow, 15 November, Friday

    Time Temperature Precipitation Wind Pressure Humidity
    00:00 +5°C° 0 mm 2 mps 743 mmHg 90%
    01:00 +5°C° 0.2 mm 2 mps 743 mmHg 89%
    02:00 +4°C° 0.2 mm 3 mps 743 mmHg 88%
    03:00 +4°C° 0.2 mm 3 mps 742 mmHg 88%
    04:00 +4°C° 0.5 mm 3 mps 742 mmHg 88%
    05:00 +4°C° 0.5 mm 3 mps 742 mmHg 89%
    06:00 +4°C° 0.5 mm 4 mps 742 mmHg 90%
    07:00 +3°C° 0.9 mm 3 mps 743 mmHg 91%
    08:00 +4°C° 0.9 mm 2 mps 743 mmHg 92%
    09:00 +4°C° 0.9 mm 2 mps 743 mmHg 93%
    10:00 +4°C° 1.1 mm 2 mps 743 mmHg 93%
    11:00 +5°C° 1.1 mm 1 mps 743 mmHg 93%
    12:00 +4°C° 1.1 mm 1 mps 743 mmHg 93%
    13:00 +5°C° 0.5 mm 1 mps 743 mmHg 93%
    14:00 +4°C° 0.5 mm 2 mps 743 mmHg 93%
    15:00 +4°C° 0.5 mm 2 mps 743 mmHg 93%
    16:00 +4°C° 0.2 mm 2 mps 743 mmHg 92%
    17:00 +4°C° 0.2 mm 2 mps 744 mmHg 91%
    18:00 +5°C° 0.2 mm 2 mps 744 mmHg 91%
    19:00 +4°C° 0.3 mm 3 mps 744 mmHg 90%
    20:00 +4°C° 0.3 mm 3 mps 745 mmHg 90%
    21:00 +4°C° 0.3 mm 4 mps 745 mmHg 89%
    22:00 +4°C° 0.1 mm 4 mps 746 mmHg 89%
    23:00 +4°C° 0.1 mm 4 mps 746 mmHg 88%

    16 November, Saturday

    Time Temperature Precipitation Wind Pressure Humidity
    00:00 +4°C° 0.1 mm 4 mps 746 mmHg 88%
    01:00 +4°C° 0 mm 4 mps 746 mmHg 87%
    02:00 +4°C° 0 mm 4 mps 746 mmHg 86%
    03:00 +4°C° 0 mm 4 mps 747 mmHg 85%
    04:00 +3°C° 0 mm 3 mps 747 mmHg 86%
    05:00 +3°C° 0 mm 3 mps 747 mmHg 88%
    06:00 +3°C° 0 mm 2 mps 748 mmHg 89%
    07:00 +4°C° 0 mm 2 mps 748 mmHg 87%
    08:00 +4°C° 0 mm 2 mps 749 mmHg 85%
    09:00 +4°C° 0 mm 2 mps 749 mmHg 83%
    10:00 +5°C° 0 mm 2 mps 750 mmHg 79%
    11:00 +6°C° 0 mm 2 mps 750 mmHg 75%
    12:00 +7°C° 0 mm 2 mps 750 mmHg 71%
    13:00 +7°C° 0 mm 2 mps 750 mmHg 72%
    14:00 +7°C° 0 mm 2 mps 750 mmHg 72%
    15:00 +7°C° 0 mm 2 mps 750 mmHg 73%
    16:00 +7°C° 0 mm 2 mps 751 mmHg 77%
    17:00 +6°C° 0 mm 2 mps 751 mmHg 81%
    18:00 +6°C° 0 mm 1 mps 752 mmHg 85%
    19:00 +6°C° 0 mm 1 mps 752 mmHg 85%
    20:00 +5°C° 0 mm 1 mps 752 mmHg 86%
    21:00 +5°C° 0 mm 1 mps 753 mmHg 87%
    22:00 +5°C° 0 mm 1 mps 753 mmHg 87%
    23:00 +5°C° 0 mm 1 mps 753 mmHg 87%

    17 November, Sunday

    Time Temperature Precipitation Wind Pressure Humidity
    00:00 +4°C° 0 mm 1 mps 753 mmHg 88%
    01:00 +4°C° 0 mm 1 mps 752 mmHg 88%
    02:00 +4°C° 0 mm 1 mps 752 mmHg 87%
    03:00 +4°C° 0 mm 1 mps 752 mmHg 87%
    04:00 +4°C° 0 mm 1 mps 752 mmHg 87%
    05:00 +4°C° 0 mm 1 mps 752 mmHg 87%
    06:00 +4°C° 0 mm 1 mps 752 mmHg 87%
    07:00 +4°C° 0 mm 1 mps 752 mmHg 85%
    08:00 +5°C° 0 mm 1 mps 752 mmHg 83%
    09:00 +5°C° 0 mm 1 mps 752 mmHg 81%
    10:00 +5°C° 0 mm 2 mps 752 mmHg 77%
    11:00 +6°C° 0 mm 2 mps 751 mmHg 73%
    12:00 +7°C° 0 mm 2 mps 751 mmHg 70%
    13:00 +7°C° 0 mm 2 mps 751 mmHg 71%
    14:00 +7°C° 0 mm 3 mps 750 mmHg 72%
    15:00 +7°C° 0 mm 3 mps 750 mmHg 74%
    16:00 +5°C° 0 mm 3 mps 750 mmHg 76%
    17:00 +5°C° 0 mm 3 mps 750 mmHg 78%
    18:00 +4°C° 0 mm 3 mps 749 mmHg 81%
    19:00 +5°C° 0.1 mm 3 mps 749 mmHg 83%
    20:00 +5°C° 0.1 mm 3 mps 749 mmHg 85%
    21:00 +5°C° 0.1 mm 3 mps 749 mmHg 87%
    22:00 +5°C° 0.2 mm 3 mps 748 mmHg 87%
    23:00 +5°C° 0.2 mm 3 mps 748 mmHg 88%

    18 November, Monday

    Time Temperature Precipitation Wind Pressure Humidity
    00:00 +5°C° 0.2 mm 3 mps 748 mmHg 88%
    01:00 +5°C° 0.2 mm 3 mps 747 mmHg 88%
    02:00 +5°C° 0.2 mm 3 mps 747 mmHg 89%
    03:00 +5°C° 0.2 mm 3 mps 747 mmHg 89%
    04:00 +5°C° 0.2 mm 3 mps 747 mmHg 90%
    05:00 +5°C° 0.2 mm 3 mps 747 mmHg 91%
    06:00 +5°C° 0.2 mm 3 mps 747 mmHg 92%
    07:00 +5°C° 0.2 mm 3 mps 747 mmHg 91%
    08:00 +5°C° 0.2 mm 3 mps 747 mmHg 90%
    09:00 +5°C° 0.2 mm 3 mps 748 mmHg 88%
    10:00 +7°C° 0.2 mm 3 mps 748 mmHg 88%
    11:00 +7°C° 0.2 mm 3 mps 748 mmHg 88%
    12:00 +6°C° 0.2 mm 4 mps 748 mmHg 87%
    13:00 +6°C° 0.2 mm 4 mps 748 mmHg 84%
    14:00 +8°C° 0.2 mm 3 mps 748 mmHg 81%
    15:00 +8°C° 0.2 mm 3 mps 748 mmHg 78%
    16:00 +8°C° 0.2 mm 3 mps 748 mmHg 80%
    17:00 +6°C° 0.2 mm 4 mps 749 mmHg 82%
    18:00 +6°C° 0.2 mm 4 mps 749 mmHg 83%
    19:00 +5°C° 0.1 mm 4 mps 749 mmHg 86%
    20:00 +5°C° 0.1 mm 4 mps 749 mmHg 88%
    21:00 +4°C° 0.1 mm 4 mps 749 mmHg 90%
    22:00 +4°C° 0 mm 4 mps 749 mmHg 90%
    23:00 +4°C° 0 mm 3 mps 749 mmHg 90%
    Show more